User: anonymous   Login
Location: Chervonnoye
(48.6000°N, 34.4000°E)
Time: 06:55:56
(UTC+00:00)
Language:

RS-44 - Orbit

View from above orbital plane
View from above orbital plane
View from above satellite
View from above satellite

Ground track
Ground track

The orbit data is extracted from the following two-line orbital elements,

1 44909U 19096E   22333.70208771  .00000028  00000-0  77395-4 0  9991
2 44909  82.5188 120.5044 0216470 293.4479  64.3998 12.79716719136643
Epoch (UTC): 29 November 2022 16:51:00
Eccentricity: 0.0216470
inclination: 82.5188°
perigee height: 1175 km
apogee height: 1510 km
right ascension of ascending node: 120.5044°
argument of perigee: 293.4479°
revolutions per day: 12.79716719
mean anomaly at epoch: 64.3998°
orbit number at epoch: 13664

The dashed part of the orbit path shows where the satellite is in the earth's shadow,  

DLR